Header for Extended Forecast Station List Page

Search by: ID | Name | Date | Parm | Value | Avg | % Avg
Sort by: ID | Name | Date | Parm | Value | Avg | % Avg

Enter search or view all records.

Click on id for station plot
#IDNameDateParmValueAvg% Avg
0BULO3BULLY CREEK-BULLY CREEK DAM11-13-2018INFLOW (KAF)3465
1RIDI1WILLOW CREEK-RIRIE DAM11-13-2018INFLOW (KAF)9996
2LWRI1LITTLE WOOD-LITTLE WOOD DAM11-13-2018INFLOW (KAF)111571
3BERO3MALHEUR-AGENCY VALLEY DAM11-13-2018INFLOW (KAF)112250
4BUDW1BUMPING-BUMPING LAKE DAM11-13-2018INFLOW (KAF)123832
5WRMO3MALHEUR-WARM SPRINGS DAM11-13-2018INFLOW (KAF)123534
6SATI1ST MARIES-NEAR SANTA11-13-2018DISCHARGE (KAF)154832
7DEDI1DEADWOOD-NEAR LOWMAN11-13-2018INFLOW (KAF)151978
8STRM8ST. REGIS-NEAR ST. REGIS11-13-2018DISCHARGE (KAF)174438
9HOTI1BRUNEAU-NEAR HOT SPRINGS11-13-2018DISCHARGE (KAF)173254
10ARDW1ENTIAT-NEAR ARDENVOIR11-13-2018DISCHARGE (KAF)192285
11HWRI1BIG LOST-AT HOWELL RANCH NEAR CHILLY11-13-2018DISCHARGE (KAF)2119108
12VALO3MALHEUR-NEAR VALE11-13-2018DISCHARGE (KAF)213561
13MAGI1BIG WOOD-MAGIC DAM11-13-2018INFLOW (KAF)223074
14TNAW1TEANAWAY-BELOW FORKS11-13-2018DISCHARGE (KAF)245047
15MYKO3MCKAY CREEK-NEAR PILOT ROCK11-13-2018DISCHARGE (KAF)2525101
16KADW1KACHESS-KACHESS DAM11-13-2018INFLOW (KAF)294860
17KEDW1YAKIMA-KEECHELUS LAKE11-13-2018INFLOW (KAF)305159
18RILW1TIETON-RIMROCK LAKE NEAR RIMROCK11-13-2018INFLOW (KAF)327145
19HALI1BIG WOOD-AT HAILEY11-13-2018DISCHARGE (KAF)343793
20GIBO3UMATILLA-NEAR GIBBON11-13-2018DISCHARGE (KAF)354381
21MACI1BIG LOST-MACKAY RESERVOIR NEAR MACKAY11-13-2018INFLOW (KAF)374872
22NACW1NACHES-NEAR NACHES11-13-2018DISCHARGE (KAF)449646
23MILI1SNAKE-AT MILNER11-13-2018DISCHARGE (KAF)446527
24CLFW1NACHES-NEAR CLIFFDEL11-13-2018DISCHARGE (KAF)5211644
25RCCM8ROCK CREEK-NEAR CLINTON11-13-2018DISCHARGE (KAF)5546119
26PIHI1PORTNEUF-AT POCATELLO11-13-2018DISCHARGE (KAF)556881
27CLUW1CLE ELUM-CLE ELUM LAKE11-13-2018INFLOW (KAF)6010657
28OWYO3OWYHEE-OWYHEE DAM11-13-2018INFLOW (KAF)6310957
29ARAI1SF BOISE-ANDERSON RANCH DAM11-13-2018INFLOW (KAF)637980
30CSDI1NF PAYETTE-CASCADE DAM11-13-2018INFLOW (KAF)639864
31EASW1YAKIMA-AT EASTON11-13-2018DISCHARGE (KAF)647684
32PRTI1PRIEST-NEAR PRIEST RIVER11-13-2018DISCHARGE (KAF)6621131
33DLGM8CLARK FORK-AT DEER LODGE11-13-2018DISCHARGE (KAF)7361118
34WSRI1WEISER-NEAR WEISER11-13-2018DISCHARGE (KAF)7612760
35IPDI1HENRYS FORK-ISLAND PARK DAM11-13-2018INFLOW (KAF)7811269
36PATW1METHOW-NEAR PATEROS11-13-2018DISCHARGE (KAF)829686
37MONO3NF JOHN DAY-AT MONUMENT11-13-2018DISCHARGE (KAF)8216649
38PDTO3UMATILLA-AT PENDLETON11-13-2018DISCHARGE (KAF)8610980
39JLKW4SNAKE-JACKSON LAKE AT DAM11-13-2018INFLOW (KAF)9911586
40LUCI1BOISE-LUCKY PEAK DAM11-13-2018INFLOW (KAF)99MM
41BIGI1BOISE-AT GLENWOOD BRIDGE11-13-2018DISCHARGE (KAF)10139257
42LAUW1KETTLE-AT LAURIER11-13-2018DISCHARGE (KAF)10212184
43TCHW1WALLA WALLA-NEAR TOUCHET11-13-2018DISCHARGE (KAF)10316164
44WGCM8MF FLATHEAD-NEAR WEST GLACIER11-13-2018DISCHARGE (KAF)10615469
45CHEI1FALL RIVER-NEAR CHESTER11-13-2018DISCHARGE (KAF)10911198
46TEAI1TETON-NEAR ST. ANTHONY11-13-2018DISCHARGE (KAF)11497118
47UMAO3UMATILLA-NEAR UMATILLA11-13-2018DISCHARGE (KAF)118111106
48CHDW1CHELAN-LAKE CHELAN DAM11-13-2018INFLOW (KAF)14916192
49SERO3JOHN DAY-AT SERVICE CK11-13-2018DISCHARGE (KAF)15428754
50DRMM8CLARK FORK-NR DRUMMOND11-13-2018DISCHARGE (KAF)155MM
51FCFM8NF FLATHEAD-NEAR COLUMBIA FALLS11-13-2018DISCHARGE (KAF)15817590
52BONM8BLACKFOOT-NEAR BONNER11-13-2018DISCHARGE (KAF)186131141
53BITM8BITTERROOT-NEAR MISSOULA11-13-2018DISCHARGE (KAF)19022087
54PESW1WENATCHEE-AT PESHASTIN11-13-2018DISCHARGE (KAF)19930765
55TRYO3GRANDE RONDE-TROY11-13-2018DISCHARGE (KAF)20938654
56UNDW1WHITE SALMON-NEAR UNDERWOOD11-13-2018DISCHARGE (KAF)22027680
57HODO3HOOD-NEAR TUCKER BRIDGE11-13-2018DISCHARGE (KAF)22226384
58HHWM8SF FLATHEAD-HUNGRY HORSE DAM11-13-2018INFLOW (KAF)22423894
59UMTW1YAKIMA-AT UMTANUM11-13-2018DISCHARGE (KAF)22828580
60PARI1BOISE-NEAR PARMA11-13-2018DISCHARGE (KAF)230214107
61TONW1OKANOGAN-NEAR TONASKET11-13-2018DISCHARGE (KAF)25828491
62EMMI1PAYETTE-NEAR EMMETT11-13-2018DISCHARGE (KAF)27838472
63PITW1KLICKITAT-NEAR PITT11-13-2018DISCHARGE (KAF)28433884
64DWRI1NF CLEARWATER-DWORSHAK DAM11-13-2018INFLOW (KAF)28661846
65JKSW4SNAKE-NEAR JACKSON11-13-2018DISCHARGE (KAF)321299107
66COEI1COEUR D ALENE-COEUR D ALENE LAKE11-13-2018INFLOW (KAF)33190736
67HEII1SNAKE-NEAR HEISE11-13-2018DISCHARGE (KAF)33455960
68ANTI1HENRYS FORK-AT ST. ANTHONY11-13-2018DISCHARGE (KAF)349341102
69PARW1YAKIMA-NEAR PARKER11-13-2018DISCHARGE (KAF)36953968
70ALPW4SNAKE-NEAR ALPINE11-13-2018DISCHARGE (KAF)374371101
71SPOW1SPOKANE-AT SPOKANE11-13-2018DISCHARGE (KAF)386MM
72ABOM8CLARK FORK-ABOVE MISSOULA11-13-2018DISCHARGE (KAF)411333123
73REXI1HENRYS FORK-AT REXBURG11-13-2018DISCHARGE (KAF)456427107
74ORFI1CLEARWATER-AT OROFINO11-13-2018DISCHARGE (KAF)45980257
75KIOW1YAKIMA-AT KIONA11-13-2018DISCHARGE (KAF)53278268
76SNAI1SNAKE-AT BLACKFOOT11-13-2018DISCHARGE (KAF)55375274
77BFTI1SNAKE-NEAR BLACKFOOT11-13-2018DISCHARGE (KAF)56179571
78PLDI1SF SNAKE-PALISADES DAM11-13-2018INFLOW (KAF)58659898
79BELM8CLARK FORK-BELOW MISSOULA11-13-2018DISCHARGE (KAF)602561107
80LLKW1SPOKANE-AT LONGLAKE11-13-2018INFLOW (KAF)608141243
81SHYI1SNAKE-NEAR SHELLEY11-13-2018DISCHARGE (KAF)62681677
82SIFI1SNAKE-AB EAGLE ROCK NR IDAHO FALLS11-13-2018DISCHARGE (KAF)64380780
83LYDM8KOOTENAI-LIBBY DAM11-13-2018INFLOW (KAF)75380993
84SRGM8CLARK FORK-AT ST REGIS11-13-2018DISCHARGE (KAF)758744102
85CFMM8FLATHEAD-AT COLUMBIA FALLS11-13-2018DISCHARGE (KAF)879115076
86WHBI1SALMON-AT WHITEBIRD11-13-2018DISCHARGE (KAF)975105892
87KERM8FLATHEAD-KERR DAM11-13-2018INFLOW (KAF)1012149568
88SPDI1CLEARWATER-AT SPALDING11-13-2018DISCHARGE (KAF)1105188059
89AFRI1SNAKE-AMERICAN FALLS RESERVOIR11-13-2018INFLOW (KAF)1207149281
90MODO3DESCHUTES-AT MOODY NR BIGGS11-13-2018DISCHARGE (KAF)1351148391
91SWAI1SNAKE-BELOW SWAN FALLS11-13-2018DISCHARGE (KAF)1780262068
92LEOI1KOOTENAI-AT LEONIA11-13-2018DISCHARGE (KAF)25221357186
93WEII1SNAKE-AT WEISER11-13-2018DISCHARGE (KAF)2629382269
94BRNI1SNAKE-BROWNLEE DAM11-13-2018INFLOW (KAF)2816396571
95NOXM8CLARK FORK-NOXON RAPIDS DAM11-13-2018INFLOW (KAF)2875362779
96CABI1CLARK FORK-CABINET GORGE DAM11-13-2018INFLOW (KAF)3165379783
97ALFW1PEND OREILLE-ALBENI FALLS DAM11-13-2018INFLOW (KAF)3205444472
98ANAW1SNAKE-NEAR ANATONE11-13-2018DISCHARGE (KAF)4174607269
99LGDW1SNAKE-LOWER GRANITE DAM11-13-2018INFLOW (KAF)5280816365
100LGSW1SNAKE-LITTLE GOOSE DAM11-13-2018INFLOW (KAF)5280823164
101LMNW1SNAKE-LOWER MONUMENTAL DAM11-13-2018INFLOW (KAF)5460837965
102IHDW1SNAKE-ICE HARBOR DAM11-13-2018INFLOW (KAF)5460829366
103CIBW1COLUMBIA-AT INTL BOUNDARY11-13-2018DISCHARGE (KAF)18071MM
104GCDW1COLUMBIA-GRAND COULEE DAM11-13-2018INFLOW (KAF)1887517162110
105CHJW1COLUMBIA-CHIEF JOSEPH DAM11-13-2018INFLOW (KAF)204742235492
106WELW1COLUMBIA-WELLS DAM11-13-2018INFLOW (KAF)208232278791
107RRHW1COLUMBIA-ROCKY REACH DAM11-13-2018INFLOW (KAF)214242332292
108WANW1COLUMBIA-WANAPUM DAM11-13-2018INFLOW (KAF)2165020411106
109PRWW1COLUMBIA-PRIEST RAPIDS DAM11-13-2018INFLOW (KAF)2165020709105
110MCDW1COLUMBIA-MCNARY DAM11-13-2018INFLOW (KAF)277383124289
111JDAO3COLUMBIA-JOHN DAY DAM11-13-2018INFLOW (KAF)290613256289
112TDAO3COLUMBIA-THE DALLES DAM11-13-2018INFLOW (KAF)296713685881
113BONO3COLUMBIA-BONNEVILLE DAM11-13-2018INFLOW (KAF)304023926577
114BFEI1KOOTENAI-AT BONNERS FERRY11-13-2018STAGE (FT)MMM
115HOPI1PEND OREILLE-PEND OREILLE LAKE NR HOPE11-13-2018LAKE ELEVATION (FT)MMM
116SJMI1ST JOE-AT ST MARIES11-13-2018STAGE (FT)MMM